Starlink 11434

operational
NORAD ID: 62420 Int'l Des: 2024-249 Owner: SPXS Country: US Constellation: starlink
LEOCIRCULAR

Starlink 11434について

説明を読み込み中...

リアルタイム位置

3D地球を読み込み中...

次回通過

高度履歴

Altitude vs Time

uPlot chart will show altitude changes over time

軌道要素

1 62420U 24249M 26033.37359122 .00129804 00000-0 99743-3 0 9990
2 62420 42.9987 20.7681 0001435 265.9461 94.1242 15.70886337 63925
Epoch: Feb 2, 2026 • Age: 20 hours

現在のステータス

高度 358.3 km
速度 7.70 km/s
衛星直下点 36.78°N, 140.72°W
打ち上げ日 Dec 23, 2024
運用期間 1.1 years
タイプ internet

技術仕様

分類 Payload
質量 960.00 kg
乾燥質量 910.00 kg
総質量 960.00 kg
長さ 0.30 m
直径 4.10 m
スパン 29.00 m
形状 Box + pan
製造者 SPXS
バスタイプ Starlink V2MD
フェーズステータス In Orbit
所有者/国 SPXS/US

大規模コンステレーション

Loading constellations...